Location: Newark
(48.4317°S, 179.1125°W)
Time: 09:47:28
(UTC+00:00)

N. Korean satellite - Pass Details

Date: 25 January 2020
Orbit: 456 x 505 km, 97.2° (Epoch: 24 February)

Event Time Altitude Azimuth Distance (km) Brightness Sun altitude
Rises 15:34:53 0° 58° (ENE) 2,621 10.5 -8.4°
Reaches altitude 10° 15:37:38 10° 81° (E) 1,744 10.0 -8.1°
Maximum altitude 15:39:53 15° 117° (ESE) 1,437 10.3 -7.8°
Drops below altitude 10° 15:42:09 10° 154° (SSE) 1,754 10.6 -7.5°
Sets 15:44:55 0° 177° (S) 2,644 11.0 -7.2°
